Location: Tehachapi Municipal Airport
(35.1300°N, 118.4400°W)
Time: 23:45:28
(UTC-07:00)

BREEZE M DEB (TANK) - Visible Passes

Search period start: 25 August 2016 00:00
Search period end: 04 September 2016 00:00
Orbit: 295 x 12022 km, 49.5° (Epoch: 25 August)

Date Brightness Start Highest point End Pass type
(mag) Time Alt. Az. Time Alt. Az. Time Alt. Az.
25 Aug 5.0 02:44:26 50° SE 02:44:59 51° ESE 03:07:33 10° NE visible
26 Aug 5.7 02:01:30 31° ESE 02:01:30 31° ESE 02:17:01 10° NE visible
26 Aug 6.3 05:55:31 10° W 06:09:13 59° N 07:24:35 10° E visible
27 Aug 6.3 01:18:33 17° E 01:18:33 17° E 01:26:34 10° ENE visible
27 Aug 5.9 05:11:24 15° W 05:21:29 61° NNW 06:21:27 10° ENE visible
28 Aug 5.3 04:28:25 30° W 04:34:37 67° NNW 05:21:13 10° ENE visible
29 Aug 4.8 03:45:27 52° WSW 03:48:28 78° NNW 04:24:46 10° ENE visible
30 Aug 4.6 03:02:27 80° S 03:03:02 84° SE 03:31:21 10° NE visible
31 Aug 5.0 02:19:27 57° E 02:19:27 57° E 02:40:00 10° NE visible
01 Sep 5.7 01:36:25 34° E 01:36:25 34° E 01:49:53 10° NE visible
01 Sep 6.3 05:29:41 10° WNW 05:43:19 57° N 06:57:36 10° E visible
02 Sep 6.3 00:53:23 19° E 00:53:23 19° E 01:00:08 10° ENE visible
02 Sep 5.9 04:46:13 19° W 04:55:31 58° N 05:54:01 10° ENE visible
03 Sep 5.4 04:03:09 35° W 04:08:28 61° NNW 04:53:19 10° ENE visible
